CZ-3B DEB, 40160

Orbit data source: Space-Track

CZ-3B DEB, 40160 is space debris in HEO originally from a launch on Sat, 04 Sep 2010 UTC launched from the Xichang Space Center, China (XSC). Debris objects in space refer to the collection of defunct objects orbiting the Earth. Examples of debris include non-operational satellites, rocket bodies, and fragments generated from explosions, collisions, or faulty payload assembly.

Loading next visibility...
Identifier
40160, 2010-042M
Orbit
HEO
Country
Flag of CNCN / PRC
Related business
Manufacturer
CALT
Mission
Spacecraft
Bus & Motor
Unknown
Mass
Unknown
Launch date (UTC)
2010-09-04 (15 years ago)
Launch vehicle
Unknown
Launch site
Xichang Space Center, China (XSC)
Object type
Payload
Rocket body
Debris
Shape & HBR
Unknown shape, 0.3 m
Radar Cross Section
Medium (>0.1 m² and <1 m²)

Expand to show TLE details & history
Last TLE update: 2 days ago

TLE from 2 days ago
0 CZ-3B DEB
1 40160U 10042M   25312.47323255 -.00000040  00000-0  00000+0 0  9996
2 40160  27.3106 309.0801 7263532 262.8061 306.6533  1.89924509 83022
Epoch: 2025-11-08T11:21Z
TLE epoch observation values (Epoch: 2025-11-08T11:21:27.292Z)
Latitude
22.6558°
Longitude
-143.14926°
Altitude
22,895.737 km
Speed
3.572 km/s
True Right ascension
05h 00m 28s
True Declination
22° 37' 34"
Sunlit
Object was in daylight at epoch
Visualization orbit readout
Latitude
Unknown
Longitude
Unknown
Altitude
Unknown
Speed
Unknown
Apparent Right ascension
Unknown
Apparent Declination
Unknown
Sunlit
N/A
Visualization observer readout
Local Sidereal Time
03:15:55
Azimuth
Unknown
Elevation
Unknown
Doppler factor
Unknown
Orbital elements
Apogee altitude
41,177.013 km
Perigee altitude
1,159.9 km
Semi-major axis
27,546.593 km
Eccentricity
0.72635
Inclination
27.3106°
RAAN
309.0801°
Arg. of periapsis
262.8061°
True anomaly
220.20493°
Mean anomaly
306.6533°
Eccentric anomaly
265.1833°
Mean motion
0.47472 °/min
Orbital period
758.34 mins
BSTAR
0
Loading maneuver chart data...
Computing Atmospheric mass density...
Loading historical data...
Loading historical data...
Loading historical data...
Loading historical data...
Loading historical data...
Loading historical data...
Loading historical data...

Documentation

Showing up to 5 results
|